Simultaneous Nadir Overpasses (SNOs) Predictions

Prediction of SNOs between GOES-16 and AQUA Satellite Orbit:

Table of predicted SNOs for the next 14.0 days since TLE Epoch: 9/9/2023
Index Date Time (GOES-16) GOES-16 Lat,Lon AQUA Lat,Lon Distance(km) Time Diff (sec)
1 09/09/2023 06:58:12 0.06, -75.21 0.18, -75.82 69.68 80
2 09/11/2023 06:41:03 0.05, -75.22 -0.60, -72.29 333.31 80
3 09/11/2023 19:01:51 -0.04, -75.23 -0.49, -77.33 238.10 80
4 09/13/2023 18:50:01 -0.04, -75.25 0.27, -73.79 166.30 80
5 09/14/2023 07:10:40 0.03, -75.25 0.78, -78.80 403.34 80
6 09/16/2023 06:53:29 0.03, -75.28 0.04, -75.25 2.84 80
7 09/18/2023 06:38:58 0.03, -75.31 -0.73, -71.71 408.77 80
8 09/18/2023 18:59:46 -0.03, -75.33 -0.32, -76.75 162.01 80
9 09/20/2023 18:47:54 -0.03, -75.36 0.44, -73.21 244.88 80
10 09/21/2023 07:08:33 0.03, -75.36 0.64, -78.21 324.13 80
